This demonstration page uses our WeatherBlox Daily Observations layout. Learn more.

Hourly Observations for August 18, 2017

Temp ( °F °C ) Dew Point ( °F °C ) Humidity (%) Winds ( mph kmh ) Pressure ( in mb ) Visibility ( mi km ) Precip ( " mm )
12:15 am 00:15 Clear 69 20.3 56 13.5 65 65 S 5 7 29.85 1011 10 16.09344 0 0
12:35 am 00:35 Clear 67 19.2 57 14 72 72 SSE 3 6 29.85 1011 10 16.09344 0 0
12:55 am 00:55 Clear 66 18.7 58 14.2 75 75 SE 5 7 29.88 1012 10 16.09344 0 0
1:15 am 01:15 Clear 64 18 57 13.8 77 77 Calm 29.88 1012 10 16.09344 0 0
1:35 am 01:35 Clear 63 17 57 13.9 82 82 W 3 6 29.91 1013 10 16.09344 0 0
1:55 am 01:55 Clear 64 17.5 55 12.9 75 75 WNW 13 20 29.94 1014 10 16.09344 0 0
2:15 am 02:15 Clear 64 17.7 54 12.4 71 71 W 6 9 29.91 1013 10 16.09344 0 0
2:35 am 02:35 Clear 64 17.6 54 12.1 70 70 W 6 9 29.91 1013 10 16.09344 0 0
2:55 am 02:55 Clear 64 17.6 55 12.7 73 73 W 8 13 29.91 1013 10 16.09344 0 0
3:15 am 03:15 Clear 64 17.8 56 13.2 75 75 WNW 9 15 29.94 1014 10 16.09344 0 0
3:35 am 03:35 Clear 64 17.9 57 13.8 77 77 NNW 7 11 29.94 1014 10 16.09344 0 0
3:55 am 03:55 Clear 64 17.7 57 14 79 79 NE 7 11 29.94 1014 10 16.09344 0 0
4:15 am 04:15 Clear 64 18 56 13.5 75 75 ESE 7 11 29.91 1013 10 16.09344 0 0
4:35 am 04:35 Clear 64 17.6 56 13.3 76 76 Calm 29.94 1014 10 16.09344 0 0
4:55 am 04:55 Clear 63 17.1 56 13.4 79 79 SE 7 11 29.91 1013 10 16.09344 0 0
5:15 am 05:15 Clear 62 16.7 56 13.5 82 82 SSE 3 6 29.91 1013 10 16.09344 0 0
5:35 am 05:35 Clear 61 15.9 56 13.5 86 86 S 3 6 29.91 1013 10 16.09344 0 0
5:55 am 05:55 Clear 62 16.5 56 13.6 83 83 S 7 11 29.91 1013 10 16.09344 0 0
6:15 am 06:15 Clear 62 16.6 56 13.5 82 82 SSW 8 13 29.94 1014 10 16.09344 0 0
6:35 am 06:35 Clear 62 16.5 56 13.5 83 83 S 9 15 29.94 1014 10 16.09344 0 0
6:55 am 06:55 Sunny 61 16.2 56 13.6 85 85 SW 7 11 29.94 1014 10 16.09344 0 0
7:15 am 07:15 Sunny 61 16 57 13.7 86 86 SSW 7 11 29.94 1014 10 16.09344 0 0
7:35 am 07:35 Sunny 62 16.5 57 14 85 85 SSW 6 9 29.94 1014 10 16.09344 0 0
7:55 am 07:55 Sunny 64 17.5 58 14.3 82 82 SSW 8 13 29.94 1014 10 16.09344 0 0
8:15 am 08:15 Sunny 65 18.4 58 14.5 78 78 SSW 8 13 29.94 1014 10 16.09344 0 0
8:35 am 08:35 Sunny 67 19.2 58 14.7 75 75 SW 5 7 29.94 1014 10 16.09344 0 0
8:55 am 08:55 Sunny 68 20.1 58 14.6 71 71 SW 6 9 29.91 1013 10 16.09344 0 0
9:15 am 09:15 Sunny 69 20.8 59 15.2 70 70 WSW 6 9 29.91 1013 10 16.09344 0 0
9:35 am 09:35 Sunny 71 21.9 59 14.9 65 65 W 8 13 29.94 1014 10 16.09344 0 0
9:55 am 09:55 Sunny 71 21.6 59 15 66 66 W 6 9 29.91 1013 10 16.09344 0 0
10:15 am 10:15 Sunny 73 22.6 59 15.1 63 63 W 6 9 29.94 1014 10 16.09344 0 0
10:35 am 10:35 Sunny 73 22.5 60 15.5 65 65 W 8 13 29.94 1014 10 16.09344 0 0
10:55 am 10:55 Sunny 74 23.5 60 15.3 60 60 W 9 15 29.88 1012 10 16.09344 0 0
11:15 am 11:15 Sunny 75 23.7 60 15.3 59 59 W 7 11 29.91 1013 10 16.09344 0 0
11:35 am 11:35 Sunny 76 24.4 60 15.6 58 58 WNW 8 13 29.91 1013 10 16.09344 0 0
11:55 am 11:55 Sunny 76 24.2 61 16.3 61 61 WNW 6 9 29.88 1012 10 16.09344 0 0
12:15 pm 12:15 Sunny 77 25 62 16.6 60 60 NW 8 13 29.88 1012 10 16.09344 0 0
12:35 pm 12:35 Sunny 78 25.3 62 16.5 58 58 NNW 6 9 29.88 1012 10 16.09344 0 0
12:55 pm 12:55 Sunny 78 25.7 63 17 59 59 WNW 7 11 29.88 1012 10 16.09344 0 0
1:15 pm 13:15 Sunny 79 26 62 16.8 57 57 NNW 5 7 29.88 1012 10 16.09344 0 0
1:35 pm 13:35 Sunny 79 26.3 62 16.7 56 56 NNW 5 7 29.88 1012 10 16.09344 0 0
1:55 pm 13:55 Sunny 80 26.6 63 17.1 56 56 N 6 9 29.88 1012 10 16.09344 0 0
2:15 pm 14:15 Sunny 80 26.8 62 16.6 54 54 N 3 6 29.85 1011 10 16.09344 0 0
2:35 pm 14:35 Sunny 81 27 61 15.9 51 51 NNE 5 7 29.85 1011 10 16.09344 0 0
2:55 pm 14:55 Sunny 82 27.5 62 16.6 51 51 N 5 7 29.85 1011 10 16.09344 0 0
3:15 pm 15:15 Sunny 82 27.6 61 16 49 49 N 5 7 29.85 1011 10 16.09344 0 0
3:35 pm 15:35 Sunny 82 27.9 59 14.9 45 45 Calm 29.85 1011 10 16.09344 0 0
3:55 pm 15:55 Sunny 82 28 60 15.3 46 46 NNE 3 6 29.85 1011 10 16.09344 0 0
4:15 pm 16:15 Sunny 83 28.1 62 16.6 50 50 ENE 3 6 29.85 1011 10 16.09344 0 0
4:35 pm 16:35 Sunny 83 28.1 59 15 45 45 Calm 29.85 1011 10 16.09344 0 0
4:55 pm 16:55 Sunny 83 28.1 59 14.8 44 44 Calm 29.85 1011 10 16.09344 0 0
5:15 pm 17:15 Sunny 83 28.5 57 14 41 41 Calm 29.85 1011 10 16.09344 0 0
5:35 pm 17:35 Sunny 84 28.7 55 13 38 38 Calm 29.83 1010 10 16.09344 0 0
5:55 pm 17:55 Sunny 83 28.5 53 11.4 35 35 Calm 29.83 1010 10 16.09344 0 0
6:15 pm 18:15 Sunny 83 28.6 58 14.2 41 41 S 6 9 29.83 1010 10 16.09344 0 0
6:35 pm 18:35 Sunny 82 28 61 16.2 49 49 S 6 9 29.83 1010 10 16.09344 0 0
6:55 pm 18:55 Sunny 82 27.7 62 16.6 51 51 S 6 9 29.83 1010 10 16.09344 0 0
7:15 pm 19:15 Sunny 81 27 64 17.6 56 56 S 5 7 29.83 1010 10 16.09344 0 0
7:35 pm 19:35 Sunny 80 26.4 64 18 60 60 S 6 9 29.85 1011 10 16.09344 0 0
7:55 pm 19:55 Sunny 78 25.7 64 17.5 61 61 S 5 7 29.85 1011 10 16.09344 0 0
8:15 pm 20:15 Sunny 77 24.8 64 17.8 65 65 SSW 6 9 29.85 1011 10 16.09344 0 0
8:35 pm 20:35 Clear 75 24 64 17.6 68 68 S 6 9 29.88 1012 10 16.09344 0 0
8:55 pm 20:55 Clear 73 22.7 64 17.5 73 73 SSW 6 9 29.91 1013 10 16.09344 0 0
9:15 pm 21:15 Clear 73 22.5 62 16.8 70 70 SSW 5 7 29.91 1013 10 16.09344 0 0
9:35 pm 21:35 Clear 71 21.5 62 16.5 73 73 S 6 9 29.91 1013 10 16.09344 0 0
9:55 pm 21:55 Clear 70 21 60 15.7 72 72 SW 5 7 29.91 1013 10 16.09344 0 0
10:15 pm 22:15 Clear 69 20.4 60 15.5 74 74 Calm 29.91 1013 10 16.09344 0 0
10:35 pm 22:35 Clear 69 20.6 59 15.1 71 71 SSW 6 9 29.91 1013 10 16.09344 0 0
10:55 pm 22:55 Clear 71 21.6 57 14.1 62 62 S 3 6 29.91 1013 10 16.09344 0 0
11:15 pm 23:15 Clear 65 18.3 60 15.5 84 84 SSE 3 6 29.94 1014 10 16.09344 0 0
11:35 pm 23:35 Clear 65 18.6 60 15.4 82 82 Calm 29.94 1014 10 16.09344 0 0
11:55 pm 23:55 Clear 66 19.1 59 15 77 77 S 3 6 29.97 1015 10 16.09344 0 0

Powered by AerisWeather